Location: Tucson
(32.2217°N, 110.9265°W)
Time: 02:03:58
(UTC-07:00)

Tiros 1 - Pass Details

Date: 25 October 2021
Orbit: 630 x 663 km, 48.4° (Epoch: 07 December)

Event Time Altitude Azimuth Distance (km) Brightness Sun altitude
Rises 10:32:42 0° 266° (W) 2,981 10.4 40.0°
Reaches altitude 10° 10:35:27 10° 281° (W) 2,067 9.5 40.3°
Maximum altitude 10:39:17 23° 334° (NNW) 1,372 8.6 40.7°
Drops below altitude 10° 10:43:06 10° 28° (NNE) 2,057 9.6 41.0°
Sets 10:45:50 0° 42° (NE) 2,963 10.4 41.3°
